Temperature
10 10 10 10 10 10 9 9 9 9 9 9 9 9 9 9 9 9 9 9 9 9 9 9 9 9 9 9 9 9 9 9 8 8 8 8 8 9 9 9 9 9 9
10 10 10 10 9 9 9 9 9 9 9 9 9 9 9 8 8 8 8 8 8 8 8 9 9 9 9 9 9 9 9 8 8 8 8 8 8 8 8 9 9 9 9
10 10 9 9 9 9 9 9 9 8 9 8 8 8 8 8 8 8 8 8 8 8 8 8 8 8 9 9 8 8 8 8 8 8 8 8 8 8 8 9 9 9 9
9 9 9 9 9 9 9 8 8 8 8 8 8 8 8 8 8 8 8 8 8 8 8 8 8 8 8 8 8 8 8 8 8 8 8 8 8 8 8 8 9 9 9
9 9 9 9 9 8 8 8 8 8 8 8 8 8 8 8 8 8 8 8 8 8 8 8 8 8 8 8 8 8 8 8 8 8 8 8 8 8 8 9 9 9 9
9 9 9 8 8 8 8 8 8 8 8 8 8 8 8 8 8 8 8 8 8 8 8 8 8 8 8 8 8 8 8 8 8 8 8 8 8 9 8 9 9 9 9
9 9 8 8 8 8 8 8 8 8 8 8 8 8 8 8 8 8 8 8 8 8 8 8 8 8 8 8 8 8 8 8 8 8 9 9 9 9 9 9 9 9 9
9 9 8 8 8 8 8 8 8 8 8 8 8 8 8 8 8 8 8 8 8 8 8 8 8 8 8 8 8 8 8 8 8 8 9 9 9 9 9 9 9 9 9
9 8 8 8 8 8 8 8 8 8 8 8 8 8 8 8 8 8 8 8 8 8 8 8 8 8 8 8 8 8 8 8 8 8 8 9 9 9 9 9 9 9 9
9 8 8 8 8 8 8 8 8 8 8 8 8 8 8 8 8 8 8 8 8 8 8 8 8 8 8 8 8 8 8 8 8 8 9 9 9 9 9 9 9 9 9
9 8 8 8 8 8 8 8 8 8 8 8 8 8 8 8 8 8 8 8 8 8 8 8 9 9 9 9 9 9 9 9 9 9 9 9 9 9 9 9 9 9 9
8 8 8 8 8 8 8 8 8 8 8 8 8 8 8 8 8 8 8 8 8 9 9 9 9 9 9 9 9 9 9 9 9 9 9 9 9 9 9 9 9 9 9
8 8 8 8 8 8 8 8 8 8 8 8 8 9 9 9 9 9 9 9 9 9 9 9 9 9 9 9 9 9 9 9 9 9 9 9 9 9 9 9 9 9 9
9 8 8 8 8 8 8 8 9 9 8 9 9 9 9 9 9 9 9 9 9 9 9 9 10 10 10 10 10 9 9 9 9 9 9 9 9 9 9 9 9 9 9
9 9 9 9 8 8 8 9 9 9 9 9 9 9 9 9 9 9 9 9 9 9 10 10 10 10 10 10 10 10 10 10 10 10 10 10 10 10 10 9 9 10 10
9 9 9 9 9 9 9 9 9 9 9 9 9 9 9 9 9 9 9 9 9 10 10 10 10 10 10 10 10 10 10 10 10 10 10 10 10 10 10 10 10 10 10
9 9 9 9 9 9 9 9 9 9 9 9 9 9 9 9 10 10 10 10 10 10 10 10 10 10 10 10 10 10 10 10 10 10 10 10 10 10 10 10 10 10 10
9 9 9 9 9 9 9 9 9 9 9 9 10 10 10 10 10 10 10 10 10 10 11 11 11 11 11 11 11 11 10 10 10 10 10 10 10 10 10 10 10 10 10
9 9 9 9 9 9 9 9 9 9 9 10 10 10 10 10 10 10 10 10 11 11 11 11 11 11 11 11 11 11 11 11 11 10 10 10 10 10 10 10 10 10 10
9 9 9 9 9 9 9 9 9 10 10 10 10 10 10 10 10 11 11 11 11 11 11 11 11 11 11 11 11 11 11 11 11 11 11 11 10 10 10 10 10 10 10
10 10 10 10 10 10 10 10 10 10 10 10 10 11 11 11 11 11 11 11 11 11 11 11 11 11 11 11 11 11 11 11 11 11 11 11 11 11 11 11 10 10 10
10 10 10 10 10 10 10 10 10 10 10 10 11 11 11 11 11 11 11 11 11 11 11 11 11 11 11 11 11 11 11 11 11 11 11 11 11 11 11 11 11 10 10
10 10 10 10 10 10 10 10 11 11 11 11 11 11 11 11 11 12 12 12 12 12 12 12 12 12 12 12 12 12 11 11 11 11 11 11 11 11 11 11 11 11 10
11 11 11 11 11 11 11 11 11 11 11 11 11 11 11 12 12 12 12 12 12 12 12 12 12 12 12 12 12 12 12 12 11 11 11 11 11 11 11 11 11 11 10
11 11 11 11 11 11 11 11 11 11 11 11 11 12 12 12 12 12 12 12 12 12 12 12 12 12 12 12 12 12 12 12 12 11 11 11 11 11 11 11 11 10 10
12 11 11 11 11 11 11 11 11 12 12 12 12 12 12 12 12 12 12 12 12 12 12 12 12 12 12 12 12 12 12 12 11 11 11 11 11 11 11 10 10 10 10
Wind_Speed
2 2 3 2 2 2 2 2 2 2 3 3 3 4 4 4 4 4 4 4 4 3 3 3 3 2 1 1 0 1 1 2 2 2 1 2 2 2 3 2 2 2 3
2 3 3 2 3 3 2 2 2 2 3 3 3 3 4 4 3 3 4 4 4 4 4 3 3 2 2 1 0 0 1 2 3 2 1 1 2 2 2 2 2 2 1
3 3 3 2 3 2 2 2 3 3 3 3 4 4 4 4 4 3 3 3 4 3 3 3 3 2 2 1 1 1 1 1 2 2 1 1 1 1 1 2 1 2 2
3 3 2 1 1 1 2 2 3 3 3 4 4 4 4 4 4 4 3 3 4 4 4 3 3 2 2 1 1 1 0 1 2 2 1 0 1 1 0 1 1 2 2
3 3 1 1 1 2 2 2 3 3 4 3 4 4 5 4 4 4 3 3 4 4 4 4 3 3 3 2 1 1 0 1 2 2 1 1 1 0 0 0 1 1 2
3 2 2 2 1 2 2 2 3 3 3 3 3 4 5 4 6 6 4 3 3 4 4 5 4 4 4 4 3 2 0 1 2 2 1 2 2 1 1 1 1 1 1
3 2 2 2 1 1 1 2 2 2 3 3 4 4 4 5 6 5 5 2 2 3 3 4 4 4 4 3 4 4 3 2 2 2 2 2 2 3 2 1 1 0 1
2 2 2 2 1 1 1 1 1 1 2 2 3 4 4 5 6 5 5 3 3 3 3 3 3 4 4 3 2 3 3 2 1 1 2 2 2 3 3 2 2 1 1
2 2 2 2 2 1 0 1 1 1 2 2 3 3 4 5 6 5 4 2 3 4 3 3 3 3 5 4 2 3 3 3 3 3 1 0 1 2 4 3 2 1 1
3 3 2 2 2 1 1 1 1 0 2 3 3 3 3 4 6 5 3 1 2 3 4 3 3 3 5 4 1 1 2 2 3 4 4 3 2 1 3 4 3 2 1
2 2 2 1 2 2 0 0 1 1 2 3 3 4 4 4 5 5 4 1 1 3 3 4 4 5 4 3 1 1 2 1 1 2 2 2 2 2 1 1 3 3 2
2 2 1 1 1 1 1 1 1 1 2 3 3 5 4 4 4 4 4 2 1 1 3 3 4 6 5 4 2 1 1 1 0 1 2 2 2 2 2 1 2 4 5
2 2 1 0 0 0 1 0 1 1 1 2 3 4 5 4 4 5 5 5 4 2 3 4 5 6 4 3 2 2 0 1 1 1 1 2 2 2 2 2 2 1 3
2 1 1 1 1 1 0 1 1 2 2 2 3 4 5 4 4 3 3 3 4 3 3 4 5 4 3 2 2 2 1 0 1 0 1 2 2 1 1 1 2 2 2
3 2 1 1 1 1 1 2 3 3 4 4 4 3 4 5 6 5 4 4 3 3 3 2 2 3 3 3 2 1 1 0 0 1 1 1 2 2 2 1 1 1 1
3 2 2 1 1 1 2 3 4 5 6 7 8 7 5 8 10 9 7 7 7 4 1 1 3 3 3 3 3 2 2 1 1 1 2 2 2 3 3 2 1 1 2
4 3 2 2 2 2 2 2 4 5 6 6 6 7 8 9 10 10 9 7 6 2 1 3 3 3 3 3 3 3 3 3 2 2 2 2 2 2 2 3 3 3 3
4 4 4 3 3 3 3 3 3 3 5 6 6 7 8 9 10 9 7 4 3 1 2 4 4 4 4 4 4 3 4 3 3 3 3 3 3 3 3 4 4 4 4
4 3 3 3 3 3 3 3 3 4 4 5 6 7 7 7 7 6 3 2 4 4 4 4 5 5 5 4 4 4 4 4 5 4 4 4 4 4 4 5 5 6 5
4 6 5 4 4 3 3 4 4 4 5 5 6 7 5 3 4 4 2 3 4 5 6 5 5 5 5 5 5 5 5 5 5 5 5 5 5 5 6 6 6 5 5
4 5 5 4 4 4 4 5 5 5 6 6 7 8 7 5 6 7 6 5 6 7 7 6 6 6 6 6 6 6 7 6 6 6 6 6 6 6 6 6 6 6 6
4 5 4 5 5 5 5 5 5 6 7 8 8 8 8 6 6 7 7 7 7 7 7 7 7 7 7 7 7 7 7 7 7 7 7 7 6 6 6 6 6 6 6
5 5 5 5 5 5 6 5 6 6 7 8 8 7 7 6 7 7 8 8 8 8 7 7 7 8 8 9 9 8 8 9 8 8 7 7 7 6 6 7 8 8 8
5 6 6 5 5 5 6 6 6 7 7 8 8 8 8 7 8 9 8 8 8 8 8 8 9 11 12 10 10 10 11 12 11 9 10 9 8 8 7 7 8 9 9
6 6 6 6 6 6 6 6 7 7 7 7 8 8 8 8 8 8 8 8 8 9 10 9 9 10 12 14 13 12 13 15 15 12 9 8 9 9 9 9 9 9 9
6 6 6 6 6 6 6 6 7 7 7 7 8 8 8 8 8 8 8 8 8 8 9 8 10 12 13 13 14 15 15 15 15 14 11 8 8 9 9 9 11 10 10
Wind_Direction
117 98 89 74 65 66 58 31 15 8 8 8 4 7 11 13 11 15 6 1 7 1 2 11 356 348 354 350 176 188 192 193 217 273 281 279 281 311 335 345 350 3 13
126 107 98 83 70 60 45 27 24 19 8 5 9 15 13 10 7 10 3 359 1 1 354 359 352 354 360 349 335 232 208 197 190 215 269 279 293 296 308 323 347 360 348
121 115 100 83 73 55 34 27 24 18 9 14 22 18 10 3 360 360 359 355 357 354 350 352 342 348 348 348 340 288 235 195 184 176 221 276 294 301 327 341 1 5 356
127 120 115 103 88 63 38 30 24 22 22 18 18 11 2 358 0 359 1 355 353 354 354 350 340 338 333 343 341 317 188 138 141 150 167 236 281 285 278 342 1 15 359
130 133 143 118 87 65 48 33 27 24 21 17 18 8 1 358 356 357 360 3 357 357 358 353 344 349 355 0 349 326 126 140 143 150 161 204 254 236 220 306 34 359 355
135 139 125 109 88 64 50 42 27 16 8 13 15 5 359 354 353 1 7 5 357 359 353 347 349 359 3 8 18 23 111 168 171 170 191 203 231 221 187 154 118 34 344
146 146 146 141 120 63 50 40 20 7 11 5 0 1 349 337 350 3 9 13 358 353 344 343 354 3 7 9 13 24 33 51 152 176 190 211 210 197 178 161 143 165 266
157 164 171 158 154 111 78 35 358 360 356 346 346 344 337 336 351 358 4 14 3 346 339 331 335 341 352 356 10 27 25 17 19 154 206 228 220 205 186 172 152 119 307
178 193 190 176 171 156 176 304 322 347 338 334 321 328 332 331 345 352 1 8 354 337 332 335 331 329 331 345 19 26 19 12 27 47 51 298 212 208 182 153 148 128 2
204 207 190 179 182 204 241 291 301 281 308 325 327 323 318 319 332 344 353 0 344 335 334 334 333 328 326 334 10 41 16 352 7 15 23 24 37 82 172 183 179 170 199
189 177 169 176 192 206 208 326 322 339 347 345 336 329 324 318 326 339 351 2 315 323 332 333 328 326 324 322 310 237 253 283 347 7 7 8 14 31 55 182 196 194 203
154 157 168 177 206 168 122 351 19 27 1 345 343 338 335 331 327 330 342 345 304 295 304 313 313 321 332 334 332 267 244 222 84 30 19 4 1 355 342 323 236 226 232
138 161 189 215 221 146 166 282 344 353 337 325 328 327 325 328 323 324 328 325 318 286 286 298 312 327 338 344 349 355 48 126 105 55 0 336 324 313 320 331 334 284 259
148 178 194 182 306 352 336 270 259 277 297 304 302 307 314 317 315 318 324 323 324 324 323 327 331 340 353 345 344 357 359 175 162 236 297 303 312 331 339 336 329 330 332
162 176 182 197 225 306 309 268 254 252 238 249 268 268 285 301 296 294 298 308 314 315 324 337 354 357 355 352 351 339 324 277 210 245 262 292 306 306 299 289 276 277 285
179 198 206 217 235 250 293 310 288 264 275 258 244 248 260 258 277 293 295 291 295 299 313 316 313 314 310 310 313 316 299 275 258 254 264 269 283 291 296 297 268 264 272
195 208 214 222 234 245 252 276 304 316 312 297 277 268 259 273 284 288 292 300 299 269 227 272 278 282 279 281 281 275 275 274 263 261 266 268 266 270 276 284 282 275 278
203 214 216 225 231 238 243 251 259 278 304 309 305 289 281 278 280 284 289 307 306 254 243 260 269 272 270 270 270 262 264 268 258 252 256 258 258 261 268 272 274 273 278
209 223 225 230 234 237 242 252 261 267 276 287 299 303 298 291 287 281 254 233 268 277 268 262 261 263 264 264 263 258 255 257 255 251 253 252 252 251 258 264 265 264 264
223 231 226 228 239 242 244 252 264 271 278 282 285 285 294 303 297 293 255 239 253 266 269 266 264 260 257 258 256 252 253 253 252 250 253 253 251 248 254 260 262 264 264
230 239 233 232 239 243 246 251 257 265 272 278 278 275 263 265 271 273 272 261 254 257 260 259 259 259 255 253 252 250 249 253 250 248 251 251 250 249 252 254 257 260 264
227 236 236 239 246 250 253 253 255 260 267 275 282 285 274 259 261 265 267 268 263 256 253 251 256 256 251 247 246 245 248 252 251 247 247 248 247 249 251 252 255 258 259
221 232 240 246 248 254 261 262 259 261 266 271 276 281 282 273 269 267 267 268 267 264 260 249 252 259 256 250 244 239 243 248 248 243 242 248 250 250 248 249 253 259 259
222 231 241 249 251 254 260 266 267 267 268 271 274 276 276 272 273 273 272 271 270 267 265 257 254 257 259 258 254 249 247 250 252 248 243 245 249 251 250 251 254 256 257
222 231 239 244 251 257 262 268 272 274 274 274 275 276 277 276 275 275 274 272 271 271 270 265 261 261 261 260 259 258 255 252 250 249 245 243 248 250 252 254 256 259 256
225 232 239 243 248 253 257 265 271 273 273 275 275 275 276 277 276 276 277 275 273 271 271 269 263 261 262 263 264 262 259 257 256 250 241 240 242 247 249 252 257 257 261
Height
1542 1543 1543 1543 1543 1544 1544 1543 1542 1542 1541 1539 1538 1537 1535 1534 1532 1530 1529 1528 1526 1525 1524 1523 1522 1521 1520 1519 1519 1519 1519 1520 1519 1519 1520 1521 1521 1521 1520 1520 1520 1520 1520
1542 1542 1543 1543 1543 1543 1543 1543 1542 1542 1540 1539 1537 1536 1535 1533 1532 1530 1528 1527 1526 1524 1523 1522 1521 1520 1519 1518 1518 1518 1517 1518 1518 1518 1519 1519 1520 1520 1520 1519 1520 1519 1519
1542 1542 1543 1543 1543 1543 1543 1543 1542 1541 1540 1539 1537 1536 1535 1533 1532 1530 1529 1527 1526 1524 1523 1522 1521 1519 1518 1517 1517 1516 1516 1516 1517 1517 1517 1518 1519 1519 1519 1519 1519 1519 1519
1541 1542 1543 1543 1543 1543 1543 1543 1542 1541 1540 1539 1537 1536 1535 1534 1532 1531 1529 1527 1526 1524 1523 1522 1521 1519 1518 1517 1516 1516 1515 1515 1516 1516 1517 1517 1518 1518 1519 1519 1519 1519 1519
1541 1542 1543 1543 1543 1543 1543 1543 1542 1541 1540 1539 1538 1537 1536 1534 1533 1531 1530 1528 1526 1525 1523 1522 1521 1519 1518 1517 1516 1516 1515 1515 1515 1515 1516 1516 1517 1517 1518 1518 1519 1519 1519
1541 1542 1542 1543 1543 1543 1543 1543 1542 1542 1541 1540 1538 1537 1536 1534 1533 1532 1530 1529 1527 1526 1524 1522 1521 1520 1519 1518 1517 1516 1516 1516 1515 1515 1515 1516 1516 1517 1518 1518 1518 1519 1519
1541 1542 1543 1543 1543 1543 1543 1543 1543 1542 1541 1540 1539 1537 1536 1535 1534 1532 1531 1530 1528 1526 1525 1523 1522 1521 1520 1519 1518 1517 1516 1516 1515 1515 1515 1515 1516 1516 1517 1518 1518 1519 1519
1541 1542 1543 1543 1543 1543 1543 1543 1543 1542 1542 1540 1539 1538 1536 1535 1534 1533 1532 1530 1529 1527 1526 1524 1523 1521 1520 1520 1519 1517 1517 1516 1515 1515 1515 1516 1516 1516 1517 1518 1518 1519 1519
1542 1542 1543 1543 1543 1544 1543 1543 1543 1542 1542 1541 1539 1538 1537 1536 1534 1533 1532 1530 1529 1528 1526 1525 1524 1522 1521 1520 1520 1519 1518 1517 1516 1516 1516 1516 1517 1517 1517 1518 1518 1519 1519
1541 1542 1543 1543 1543 1544 1543 1543 1543 1543 1542 1541 1540 1538 1537 1536 1535 1533 1532 1531 1529 1528 1527 1526 1524 1523 1522 1521 1521 1520 1519 1518 1518 1517 1517 1517 1517 1518 1518 1518 1519 1519 1519
1541 1542 1543 1543 1543 1544 1544 1543 1543 1543 1542 1541 1539 1538 1537 1536 1535 1534 1533 1531 1530 1529 1528 1526 1525 1524 1523 1523 1522 1521 1520 1520 1519 1519 1518 1518 1519 1519 1519 1519 1519 1519 1519
1541 1542 1543 1543 1544 1544 1544 1543 1543 1543 1542 1541 1540 1539 1537 1536 1535 1534 1533 1532 1530 1529 1528 1527 1526 1525 1524 1524 1523 1522 1522 1521 1520 1520 1520 1519 1519 1519 1520 1520 1519 1519 1519
1541 1542 1543 1543 1544 1544 1544 1543 1543 1543 1542 1541 1540 1539 1537 1536 1535 1534 1533 1532 1531 1529 1528 1527 1527 1526 1525 1524 1524 1523 1523 1522 1522 1521 1520 1520 1520 1520 1520 1520 1520 1519 1519
1541 1542 1542 1543 1543 1543 1543 1543 1543 1543 1542 1541 1540 1539 1537 1536 1535 1534 1533 1532 1530 1529 1529 1528 1527 1527 1526 1525 1525 1524 1524 1523 1523 1522 1521 1521 1521 1521 1520 1520 1519 1519 1518
1541 1541 1542 1542 1543 1543 1543 1543 1543 1543 1543 1541 1540 1539 1537 1536 1535 1534 1533 1532 1531 1530 1529 1528 1528 1527 1526 1526 1525 1525 1524 1524 1523 1523 1522 1521 1521 1520 1520 1519 1519 1518 1517
1540 1541 1542 1542 1543 1543 1543 1543 1543 1542 1542 1541 1540 1539 1537 1536 1535 1534 1533 1532 1531 1530 1529 1528 1527 1527 1526 1525 1525 1524 1524 1523 1523 1522 1522 1521 1520 1520 1519 1518 1518 1517 1515
1540 1541 1541 1542 1542 1542 1542 1542 1541 1541 1541 1540 1539 1538 1537 1535 1534 1533 1532 1531 1531 1530 1529 1528 1527 1526 1525 1525 1524 1523 1523 1522 1522 1521 1521 1520 1519 1519 1518 1517 1516 1515 1513
1539 1540 1540 1541 1541 1541 1541 1541 1540 1540 1539 1538 1538 1537 1535 1534 1533 1532 1531 1530 1530 1529 1528 1527 1526 1525 1524 1524 1523 1522 1522 1521 1520 1520 1519 1518 1518 1517 1516 1515 1514 1512 1511
1538 1539 1539 1539 1540 1540 1540 1539 1539 1538 1538 1537 1536 1535 1534 1533 1532 1531 1530 1529 1528 1527 1526 1525 1524 1524 1523 1522 1521 1521 1520 1519 1518 1518 1517 1516 1515 1514 1513 1512 1511 1509 1508
1537 1538 1538 1538 1538 1538 1538 1537 1537 1537 1536 1535 1534 1533 1532 1531 1529 1529 1528 1526 1525 1524 1524 1523 1522 1521 1520 1520 1519 1518 1517 1516 1516 1515 1514 1513 1512 1511 1510 1508 1507 1506 1504
1536 1536 1536 1536 1536 1536 1536 1535 1535 1534 1534 1533 1532 1531 1530 1528 1527 1526 1525 1524 1523 1522 1521 1520 1519 1518 1518 1517 1516 1515 1514 1513 1512 1511 1510 1509 1508 1507 1506 1505 1503 1502 1500
1534 1534 1534 1534 1534 1534 1534 1533 1533 1532 1531 1530 1529 1528 1527 1526 1524 1523 1522 1521 1520 1519 1518 1516 1515 1514 1514 1513 1512 1511 1510 1509 1508 1507 1506 1505 1504 1502 1501 1500 1498 1497 1496
1531 1531 1531 1531 1531 1531 1531 1530 1530 1529 1528 1527 1526 1525 1524 1522 1521 1520 1518 1517 1516 1515 1514 1512 1511 1510 1509 1508 1507 1506 1505 1504 1503 1502 1501 1500 1498 1497 1496 1494 1493 1492 1490
1529 1529 1529 1529 1528 1528 1528 1527 1527 1526 1525 1524 1523 1521 1520 1519 1517 1516 1515 1513 1512 1511 1509 1508 1507 1505 1504 1503 1502 1501 1500 1499 1498 1496 1495 1494 1493 1491 1490 1488 1487 1485 1484
1526 1526 1526 1526 1526 1525 1524 1524 1523 1522 1521 1520 1519 1518 1516 1515 1514 1512 1511 1509 1508 1506 1504 1503 1502 1500 1499 1498 1496 1495 1494 1493 1492 1490 1489 1488 1486 1485 1483 1482 1480 1479 1477
1523 1523 1523 1523 1522 1522 1521 1520 1520 1519 1518 1516 1515 1514 1512 1511 1509 1508 1506 1505 1503 1501 1499 1498 1496 1495 1493 1492 1490 1489 1488 1486 1485 1484 1483 1481 1480 1478 1477 1475 1473 1471 1470